Location: Newark
(7.5381°N, 8.4972°W)
Time: 01:29:35
(UTC+00:00)

N. Korean satellite - Visible Passes

Search period start: 20 October 2019 00:00
Search period end: 30 October 2019 00:00
Orbit: 455 x 508 km, 97.2° (Epoch: 19 October)

Date Brightness Start Highest point End Pass type
(mag) Time Alt. Az. Time Alt. Az. Time Alt. Az.
22 Oct 9.0 05:42:24 10° NE 05:45:38 29° E 05:48:53 10° SSE visible
23 Oct 10.4 05:18:58 10° ENE 05:20:23 12° E 05:21:48 10° ESE visible
23 Oct 9.9 18:42:31 10° SW 18:44:53 18° W 18:47:14 10° NW visible
26 Oct 9.6 05:34:53 10° NE 05:37:49 22° E 05:40:45 10° SSE visible
27 Oct 9.4 18:34:12 10° SSW 18:37:00 23° W 18:39:46 10° NW visible
29 Oct 8.1 05:51:41 10° NNE 05:55:13 42° E 05:58:45 10° S visible
